Arlington, WA
on Thursday, January 3, 2013

Thursday
Previous Day Next Day
Daily Summary
 ActualAverageRecord
Temperature
Mean Temperature °F °F  
Max Temperature 46°F 35°F 53°F (2001)
Min Temperature 19°F 19°F 14°F (1979)
Degree Days
Heating Degree Days 32    
Moisture
Dew Point 25°F   
Average Humidity 75    
Maximum Humidity 100    
Minimum Humidity 37    
Precipitation
Precipitation 0.01 in in in ()
Wind
Wind Speed 3 mph   
Max Wind Speed 12 mph   
Max Gust Speed mph   
Visibility 8 miles   
Events     
Averages and records for this station are not official NWS values.
Key: T is trace of precipitation, MM is missing value
Source: NWS Daily Summary
Seasonal Weather Averages
Time(PST)TemperatureDew PointHumidity Pressure Visibility Wind DirectionWind SpeedGust SpeedPrecipitationEvents Conditions
12:15 AM 24.8°F 23.0°F 93% 30.22 in 0.5 miles North 4.6 mph - N/A   Overcast
12:35 AM 24.8°F 19.4°F 80% 30.22 in 3.0 miles Calm Calm - N/A   Partly Cloudy
12:55 AM 23.0°F 19.4°F 86% 30.22 in 4.0 miles Calm Calm - N/A   Clear
1:15 AM 23.0°F 19.4°F 86% 30.21 in 9.0 miles Calm Calm - N/A   Clear
1:35 AM 24.8°F 23.0°F 93% 30.22 in 8.0 miles Calm Calm - N/A   Clear
1:55 AM 24.8°F 23.0°F 93% 30.22 in 7.0 miles Calm Calm - N/A   Clear
2:15 AM 24.8°F 21.2°F 86% 30.22 in 3.0 miles Calm Calm - N/A   Clear
2:35 AM 23.0°F 19.4°F 86% 30.22 in 2.0 miles Calm Calm - N/A   Clear
2:55 AM 21.2°F 19.4°F 93% 30.22 in 6.0 miles Calm Calm - N/A   Clear
3:15 AM 21.2°F 17.6°F 86% 30.22 in 4.0 miles Calm Calm - N/A   Clear
3:35 AM 24.8°F 24.8°F 100% 30.21 in 1.2 miles Calm Calm - N/A   Clear
3:55 AM 24.8°F 23.0°F 93% 30.21 in 3.0 miles Calm Calm - N/A   Clear
4:15 AM 24.8°F 23.0°F 93% 30.19 in 2.5 miles Calm Calm - N/A   Clear
4:35 AM 23.0°F 21.2°F 93% 30.19 in 1.5 miles Calm Calm - N/A   Clear
4:55 AM 21.2°F 19.4°F 93% 30.17 in 0.2 miles Calm Calm - N/A   Overcast
5:15 AM 19.4°F 17.6°F 93% 30.17 in 0.8 miles Calm Calm - N/A   Mostly Cloudy
5:35 AM 23.0°F 21.2°F 93% 30.17 in 10.0 miles Calm Calm - N/A   Partly Cloudy
5:55 AM 21.2°F 19.4°F 93% 30.17 in 10.0 miles Calm Calm - N/A   Partly Cloudy
6:15 AM 23.0°F 21.2°F 93% 30.16 in 10.0 miles ENE 3.5 mph - N/A   Clear
6:35 AM 23.0°F 19.4°F 86% 30.16 in 10.0 miles Calm Calm - N/A   Clear
6:55 AM 19.4°F 15.8°F 86% 30.15 in 10.0 miles Calm Calm - N/A   Clear
7:35 AM 21.2°F 21.2°F 100% 30.16 in 2.0 miles Calm Calm - N/A   Clear
7:55 AM 24.8°F 21.2°F 86% 30.16 in 10.0 miles Calm Calm - N/A   Clear
8:15 AM 21.2°F 19.4°F 93% 30.16 in 10.0 miles Calm Calm - N/A   Clear
8:35 AM 21.2°F 21.2°F 100% 30.16 in 10.0 miles Calm Calm - N/A   Clear
8:55 AM 24.8°F 23.0°F 93% 30.16 in 10.0 miles East 4.6 mph - N/A   Clear
9:15 AM 30.2°F 28.4°F 93% 30.16 in 10.0 miles SE 10.4 mph - N/A   Clear
9:35 AM 30.2°F 28.4°F 93% 30.15 in 10.0 miles ESE 5.8 mph - N/A   Clear
9:55 AM 33.8°F 26.6°F 75% 30.15 in 10.0 miles Calm Calm - N/A   Clear
10:15 AM 35.6°F 24.8°F 65% 30.15 in 10.0 miles Calm Calm - N/A   Clear
10:35 AM 35.6°F 28.4°F 75% 30.15 in 10.0 miles Calm Calm - N/A   Clear
10:55 AM 37.4°F 23.0°F 56% 30.15 in 10.0 miles Calm Calm - N/A   Clear
11:15 AM 37.4°F 26.6°F 65% 30.16 in 10.0 miles SSE 3.5 mph - N/A   Clear
11:35 AM 39.2°F 26.6°F 61% 30.15 in 10.0 miles ESE 3.5 mph - N/A   Clear
11:55 AM 39.2°F 24.8°F 56% 30.14 in 10.0 miles Calm Calm - N/A   Clear
12:15 PM 41.0°F 26.6°F 57% 30.14 in 10.0 miles Calm Calm - N/A   Clear
12:35 PM 41.0°F 28.4°F 61% 30.13 in 10.0 miles NNE 3.5 mph - N/A   Clear
12:55 PM 42.8°F 28.4°F 57% 30.12 in 10.0 miles Calm Calm - N/A   Clear
1:15 PM 42.8°F 30.2°F 61% 30.12 in 10.0 miles Calm Calm - N/A   Clear
1:35 PM 42.8°F 30.2°F 61% 30.11 in 10.0 miles Calm Calm - N/A   Clear
1:55 PM 46.4°F 28.4°F 50% 30.11 in 10.0 miles SSE 11.5 mph - N/A   Clear
2:15 PM 44.6°F 26.6°F 49% 30.11 in 10.0 miles South 4.6 mph - N/A   Clear
2:35 PM 46.4°F 21.2°F 37% 30.11 in 10.0 miles SSE 10.4 mph - N/A   Clear
2:55 PM 46.4°F 23.0°F 40% 30.11 in 10.0 miles SE 9.2 mph - N/A   Clear
3:15 PM 42.8°F 23.0°F 46% 30.11 in 10.0 miles SSE 8.1 mph - N/A   Clear
3:35 PM 41.0°F 21.2°F 45% 30.12 in 10.0 miles South 5.8 mph - N/A   Clear
3:55 PM 39.2°F 23.0°F 52% 30.14 in 10.0 miles South 6.9 mph - N/A   Clear
4:15 PM 39.2°F 24.8°F 56% 30.15 in 10.0 miles SSE 10.4 mph - N/A   Clear
4:35 PM 42.8°F 21.2°F 42% 30.14 in 10.0 miles ESE 8.1 mph - N/A   Partly Cloudy
4:55 PM 42.8°F 21.2°F 42% 30.14 in 10.0 miles SE 8.1 mph - N/A   Mostly Cloudy
5:15 PM 39.2°F 21.2°F 49% 30.14 in 10.0 miles South 5.8 mph - N/A   Overcast
5:35 PM 39.2°F 23.0°F 52% 30.13 in 10.0 miles ESE 3.5 mph - N/A   Overcast
5:55 PM 39.2°F 21.2°F 49% 30.12 in 10.0 miles East 3.5 mph - N/A   Overcast
6:15 PM 39.2°F 23.0°F 52% 30.12 in 10.0 miles ESE 3.5 mph - N/A   Overcast
6:35 PM 37.4°F 24.8°F 60% 30.12 in 10.0 miles SW 3.5 mph - N/A   Overcast
6:55 PM 39.2°F 23.0°F 52% 30.12 in 10.0 miles South 5.8 mph - N/A   Overcast
7:15 PM 37.4°F 24.8°F 60% 30.15 in 10.0 miles South 10.4 mph - N/A   Overcast
7:35 PM 37.4°F 24.8°F 60% 30.15 in 10.0 miles SSE 11.5 mph - N/A   Overcast
7:55 PM 37.4°F 26.6°F 65% 30.16 in 10.0 miles SSE 11.5 mph - N/A   Overcast
8:15 PM 35.6°F 28.4°F 75% 30.17 in 7.0 miles SE 9.2 mph - 0.01 in   Overcast
8:35 PM 35.6°F 30.2°F 81% 30.16 in 10.0 miles SE 9.2 mph - 0.01 in   Overcast
8:55 PM 35.6°F 30.2°F 81% 30.16 in 10.0 miles SE 8.1 mph - 0.01 in   Overcast
9:15 PM 35.6°F 32.0°F 87% 30.15 in 10.0 miles SSE 3.5 mph - N/A   Overcast
9:35 PM 35.6°F 32.0°F 87% 30.15 in 10.0 miles Calm Calm - N/A   Overcast
9:55 PM 35.6°F 33.8°F 93% 30.15 in 10.0 miles South 3.5 mph - N/A   Overcast
10:15 PM 35.6°F 32.0°F 87% 30.16 in 10.0 miles South 3.5 mph - N/A   Overcast
10:35 PM 35.6°F 32.0°F 87% 30.17 in 10.0 miles Calm Calm - N/A   Overcast
10:55 PM 35.6°F 32.0°F 87% 30.17 in 10.0 miles Calm Calm - N/A   Overcast
11:15 PM 35.6°F 32.0°F 87% 30.17 in 10.0 miles SSW 6.9 mph - N/A   Overcast
11:35 PM 35.6°F 33.8°F 93% 30.17 in 10.0 miles South 5.8 mph - N/A   Overcast
11:55 PM 35.6°F 32.0°F 87% 30.16 in 10.0 miles South 5.8 mph - N/A   Overcast
Moon Phase
Jan. 03 Jan. 04 Jan. 11 Jan. 18 Jan. 26
Sunrise:07:58 AM (PST) Moon Rise:11:43 PM (PST)1/3
Sunset:04:28 PM (PST) Moon Set:10:42 AM (PST)1/3

Copyright © 2014 The Weather Underground, Inc.